Lowell, ID

2:11 AM MST on December 16, 2017 (GMT -0700)
Lowell

Weather History for KP69 - July, 2013

Change the Weather History Date:

Tuesday, July 2, 2013

  Actual Average Record
Temperature  
Mean Temperature 83 °F -  
Max Temperature 100 °F 81 °F 104 °F (2015)
Min Temperature 66 °F 51 °F 46 °F (1999)
Cooling Degree Days 18    
Growing Degree Days 33 (Base 50)    
Moisture  
Dew Point 66 °F    
Average Humidity 66    
Maximum Humidity 90    
Minimum Humidity 30    
Precipitation  
Precipitation 0.00 in - - ()
Sea Level Pressure  
Sea Level Pressure 29.89 in    
Wind  
Wind Speed 1 mph (NNW)    
Max Wind Speed 5 mph    
Max Gust Speed -    
Averages and records for this station are not official NWS values.
T = Trace of Precipitation, MM = Missing Value Source: NWS Daily Summary

Daily Weather History Graph

Daily Weather History Graph

Search for Another Location

Airport or City:

Trip Planner

Search our weather history database for the weather conditions in past years. The results will help you decide how hot, cold, wet, or windy it might be!

Date:

Astronomy

Jul. 02, 2013 Rise Set
Actual Time 5:55 AM MDT 9:37 PM MDT
Civil Twilight 5:17 AM MDT 10:15 PM MDT
Nautical Twilight 4:25 AM MDT 11:06 PM MDT
Astronomical Twilight 3:14 AM MDT 12:17 AM MDT
Moon 2:10 AM MDT (7/2) 4:47 PM MDT (7/2)
Length of Visible Light 16h 57m
Length of Day
15h 41m
Waning Crescent, 26% of the Moon is Illuminated
Jul 2
Waning Crescent
Jul 8
New
Jul 15
First Quarter
Jul 22
Full
Jul 29
Last Quarter

Hourly Weather History & Observations

Time (MDT) Temp. Heat Index Dew Point Humidity Pressure Visibility Wind Dir Wind Speed Gust Speed Precip Events Conditions
12:52 AM 71.1 °F - 68.0 °F 90% 29.87 in - NNW 3.5 mph - N/A   Unknown
1:52 AM 71.1 °F - 66.9 °F 87% 29.88 in - Calm Calm - N/A   Unknown
2:52 AM 69.1 °F - 66.0 °F 90% 29.89 in - Calm Calm - N/A   Unknown
3:52 AM 68.0 °F - 64.9 °F 90% 29.90 in - Calm Calm - N/A   Unknown
4:52 AM 68.0 °F - 64.0 °F 87% 29.93 in - Calm Calm - N/A   Unknown
5:52 AM 66.9 °F - 64.0 °F 90% 29.95 in - NNW 3.5 mph - N/A   Unknown
6:52 AM 66.0 °F - 63.0 °F 90% 29.98 in - NW 3.5 mph - N/A   Unknown
7:52 AM 68.0 °F - 63.0 °F 84% 30.01 in - Calm Calm - N/A   Unknown
8:52 AM 70.0 °F - 63.0 °F 78% 30.01 in - Calm Calm - N/A   Unknown
9:52 AM 73.9 °F - 62.1 °F 66% 29.98 in - Calm Calm - N/A   Unknown
10:52 AM 81.0 °F 81.9 °F 62.1 °F 52% 29.95 in - Calm Calm - N/A   Unknown
11:52 AM 87.1 °F 87.5 °F 62.1 °F 43% 29.91 in - Calm Calm - N/A   Unknown
12:52 PM 90.0 °F 90.6 °F 63.0 °F 40% 29.88 in - Calm Calm - N/A   Unknown
1:52 PM 98.1 °F 101.2 °F 64.9 °F 34% 29.85 in - Calm Calm - N/A   Unknown
2:52 PM 99.0 °F 102.9 °F 66.0 °F 34% 29.83 in - Variable 4.6 mph - N/A   Unknown
3:52 PM 100.0 °F 104.2 °F 66.0 °F 33% 29.81 in - Variable 4.6 mph - N/A   Unknown
4:52 PM 100.9 °F 104.0 °F 64.0 °F 30% 29.79 in - Calm Calm - N/A   Unknown
5:52 PM 96.1 °F 99.3 °F 66.0 °F 37% 29.81 in - Calm Calm - N/A   Unknown
6:52 PM 87.1 °F 92.8 °F 71.1 °F 59% 29.83 in - Calm Calm - N/A   Unknown
7:52 PM 84.0 °F 89.0 °F 71.1 °F 65% 29.82 in - Calm Calm - N/A   Unknown
8:52 PM 81.0 °F 84.4 °F 70.0 °F 69% 29.82 in - Calm Calm - N/A   Unknown
9:52 PM 77.0 °F - 70.0 °F 79% 29.85 in - Calm Calm - N/A   Unknown
10:52 PM 73.9 °F - 68.0 °F 82% 29.86 in - North 3.5 mph - N/A   Unknown
11:52 PM 72.0 °F - 66.9 °F 84% 29.87 in - NNW 4.6 mph - N/A   Unknown